Location: Oberwil
(46.6569°N, 7.4351°E)
Time: 07:06:35
(UTC+00:00)

Daily predictions for brighter satellites

Satellite Brightness Start Highest point End
(mag) Time Altitude Azimuth Time Altitude Azimuth Time Altitude Azimuth
Cosmos 1867 3.9 17:56:33 10° NNW 18:01:53 49° NE 18:07:10 10° ESE
Lacrosse 5 rocket 2.9 18:03:08 10° W 18:07:03 35° NNW 18:11:09 10° NE
CSL-04 Debris 4.2 18:02:33 10° SSE 18:07:52 66° ENE 18:13:13 10° N
Cosmos 1939 Rocket 4.1 18:06:20 10° S 18:10:19 47° W 18:14:21 10° NNW
CZ-2D R/B 4.0 18:06:31 10° S 18:10:21 60° W 18:14:13 10° NNW
Sich 1 Rocket 4.1 18:06:54 10° SSE 18:11:03 38° E 18:15:15 10° NNE
Meteor 1-21 4.2 18:08:14 10° N 18:13:51 73° ENE 18:19:25 10° SSE
MOS 1 Rocket 3.6 18:10:33 10° NNE 18:14:42 37° E 18:18:42 10° SSE
Helios 1A Rocket 4.5 18:11:12 10° S 18:15:04 40° W 18:19:00 10° NNW
Cosmos 807 4.4 18:12:22 10° S 18:15:26 58° E 18:19:04 10° NNE
Cosmos 1603 3.9 18:09:58 10° NNW 18:15:40 77° WSW 18:21:16 10° SSE
CSL-04 Rocket 3.7 18:10:55 10° SSE 18:16:18 74° ENE 18:21:49 10° NNW
SJ 16-02 2.8 18:14:43 10° SW 18:18:53 42° WNW 18:23:04 10° N
OBJECT-B 3.1 18:19:46 10° ENE 18:20:01 10° ENE 18:20:14 10° ENE
Cosmos 1937 Rocket 3.5 18:17:19 10° SSW 18:22:34 78° ESE 18:27:48 10° NNE
NOSS 8 (H) 4.2 18:20:07 10° SW 18:23:18 81° NW 18:26:19 10° NE
Abrixas rocket 2.1 18:26:42 10° W 18:29:32 65° N 18:31:43 15° ENE
Okean 2 Rocket 3.6 18:25:26 10° SSE 18:29:35 38° E 18:33:44 10° NNE
Cosmos 1464 Rocket 4.1 18:25:21 10° SSE 18:31:12 49° E 18:37:05 10° NNE
NOSS 2-2 (E) 3.0 18:28:11 10° SSW 18:31:38 65° SE 18:35:31 10° NE
SL-08 RB Rocket 4.1 18:27:49 10° SE 18:32:11 44° ENE 18:36:31 10° N
USA 116 3.7 18:31:48 10° N 18:35:13 74° WNW 18:39:01 10° SSW
Okean-O 4.3 18:31:42 10° SSW 18:35:48 36° W 18:39:55 10° NNW
Okean 2 4.4 18:32:02 10° NNW 18:36:05 49° W 18:40:06 10° SSW
ATLAS 2AS CENTAUR R/B 4.2 18:33:06 10° SE 18:37:32 16° ESE 18:41:57 10° ENE
Cosmos 1300 Rocket 3.8 18:34:00 10° SSE 18:38:10 44° E 18:42:23 10° NNE
CZ-2C R/B 3.2 18:37:04 10° SSW 18:38:33 12° S 18:39:59 10° SSE
NOSS 2-2 (D) 3.0 18:36:53 10° SSW 18:40:19 62° SE 18:44:08 10° NE
Iridium 4 Rocket 4.5 18:39:31 10° SSW 18:44:20 51° W 18:49:38 10° N
USA 102 2.9 18:38:58 11° SE 18:44:59 42° E 18:45:14 41° ENE
YAOGAN 1 4.1 18:41:05 10° SSW 18:45:08 39° W 18:49:13 10° NNW
CENTAUR R/B 3.6 18:38:08 10° NW 18:45:40 47° NE 18:51:58 18° ESE
Cosmos 1975 4.2 18:42:07 10° SSW 18:46:01 42° WNW 18:49:56 10° N
BREEZE-M R/B 4.5 18:32:15 10° SW 18:46:17 63° SSE 18:48:53 19° E
H-2A R/B 2.2 18:44:15 10° S 18:49:11 72° WSW 18:54:17 10° NNW
CZ-4 R/B 3.7 18:46:57 10° SSW 18:50:36 28° W 18:54:15 10° NW
Cosmos 1674 3.7 18:47:52 10° NNE 18:51:14 28° ENE 18:52:10 25° E
ATLAS 3B R/B 4.1 18:46:45 10° NNW 18:52:14 25° NNE 18:56:56 13° ENE
Exosat Rocket 4.3 18:49:08 10° SSE 18:53:59 29° ESE 18:58:18 10° NE
Cosmos 1048 Rocket 4.3 18:49:21 10° NNW 18:54:33 52° ENE 18:58:02 20° SE
ISS -3.7 18:51:20 10° SW 18:54:39 59° SSE 18:56:09 29° E
Cosmos 1536 Rocket 3.7 18:51:28 10° N 18:55:50 51° ENE 18:58:59 18° SSE
USA 238 DEB 3.9 18:50:09 10° NW 18:57:18 64° NE 19:02:30 21° ESE
USA 238 4.0 18:50:15 10° NW 18:57:24 64° NE 19:02:35 21° ESE
In-Cosmos 22 4.0 18:53:07 10° N 18:58:26 75° ENE 19:03:47 10° SSE
Cosmos 1891 Rocket 4.4 18:52:29 10° S 18:58:38 83° E 19:04:43 10° N
ARGOS 3.4 18:57:22 10° S 19:02:43 73° WSW 19:08:06 10° NNW
Cosmos 1025 Rocket 3.0 19:01:26 10° N 19:05:51 86° E 19:10:02 11° S
CZ-2C R/B 2.7 19:00:32 10° NNE 19:06:01 59° E 19:11:32 10° S
Cosmos 1707 3.3 19:05:17 10° NNW 19:09:04 57° W 19:12:48 10° S
Cosmos 2151 Rocket 3.5 19:06:32 10° S 19:10:58 73° E 19:15:27 10° NNE
KORONAS-FOTON 4.1 19:09:05 10° N 19:12:54 47° ENE 19:13:36 41° ESE
USA 186 2.1 19:13:02 23° S 19:14:49 64° W 19:18:02 10° NNW
CREW DRAGON DEMO-1 DEB 3.9 19:14:48 10° WNW 19:17:38 34° N 19:18:00 33° NNE
Ariane Rocket 3.0 19:12:56 12° SSE 19:17:39 84° WSW 19:22:45 10° NNW
SJ-6B 2.6 19:16:15 29° SSE 19:18:02 89° ENE 19:21:49 10° NNW
Cosmos 1844 3.8 19:14:46 10° S 19:20:14 49° ESE 19:25:40 10° NE
FREGAT/IRIS 2.6 19:20:39 62° NW 19:20:39 62° NW 19:22:56 10° NNW
Cosmos 2263 Rocket 3.9 19:17:27 10° WSW 19:22:29 34° NW 19:27:36 10° NNE
Nadezhda 4 Rocket 3.9 19:17:16 10° N 19:23:25 89° E 19:29:17 11° S
Cosmos 494 Rocket 4.1 19:19:05 10° NNW 19:24:18 59° ENE 19:26:06 38° SE
NOSS 2-2 (C) 4.1 19:21:33 10° WSW 19:24:58 48° NW 19:28:52 10° NNE
NOSS 3-2 (A) 4.0 19:17:31 10° NW 19:25:03 90° SW 19:30:19 26° SE
MOS 1 4.3 19:21:25 14° SSE 19:26:19 84° WSW 19:32:04 10° NNW
Cosmos 2034 Rocket 4.0 19:22:23 10° S 19:28:46 88° W 19:35:10 10° N
Cosmos 1844 Rocket 2.5 19:23:23 10° SSW 19:28:55 71° ESE 19:34:29 10° NNE
Cosmos 2298 Rocket 4.1 19:25:59 10° SSW 19:31:19 83° WNW 19:36:42 10° NNE
SPOT 3 Rocket 3.5 19:32:57 42° SE 19:34:35 65° ENE 19:39:42 10° N
Resurs 01 Rocket 1.7 19:42:54 57° ENE 19:42:54 57° ENE 19:47:16 10° N
USA 234 3.2 19:37:13 12° ENE 19:43:13 59° SE 19:49:40 10° SW
SWAS 4.3 19:41:20 10° NNW 19:45:39 87° ENE 19:45:52 80° SE
Lacrosse 5 rocket 3.6 19:43:52 10° NW 19:47:16 21° N 19:49:28 16° NE
Cosmos 1833 Rocket 3.6 19:46:03 10° NNW 19:51:06 32° NE 19:51:25 32° ENE
OBJECT-B 1.9 19:52:34 44° NW 19:52:34 44° NW 19:55:06 10° NNW
Meteor 1-15 Rocket 4.3 19:47:40 10° SSW 19:53:16 76° WNW 19:59:01 10° N
Cosmos 1626 3.4 19:53:52 10° N 19:56:03 33° N 19:56:03 33° N
NOSS 3-2 (C) 4.0 19:52:20 10° NW 19:59:53 86° SW 20:03:03 43° SSE
ARIANE 5 R/B 3.5 20:01:02 38° NNE 20:01:02 38° NNE 20:04:06 10° N
Cosmos 1634 Rocket 3.8 19:59:03 41° S 20:01:21 77° E 20:07:33 10° NNE
BREEZE-M TANK 2.9 19:58:07 10° WSW 20:04:38 66° SSW 20:04:38 66° SSW
Landsat 7 4.5 20:09:07 43° NNE 20:09:07 43° NNE 20:12:42 10° N
Cosmos 2285 Rocket 4.0 20:02:30 10° SSW 20:08:49 82° WNW 20:15:13 10° NNE
Cosmos 1125 Rocket 3.9 20:03:38 10° SSW 20:08:54 65° WNW 20:14:13 10° NNE
Okean 1 Rocket 3.5 20:08:19 51° SW 20:09:09 61° WNW 20:13:37 10° N
ERS-1 Rocket 4.3 20:17:27 28° NNE 20:17:27 28° NNE 20:20:29 10° N
Meteor 2-19 Rocket 4.5 20:16:57 10° N 20:22:38 62° ENE 20:22:38 62° ENE
Meteor 2-5 Rocket 4.2 20:18:35 10° NNW 20:24:05 57° W 20:25:27 45° SW
ATLAS 2AS CENTAUR R/B 2.9 20:19:23 10° SSW 20:27:15 69° ESE 20:35:05 10° NE
Cosmos 2026 Rocket 4.3 20:22:50 10° NNW 20:29:06 64° W 20:30:53 46° SSW
Cosmos 2098 Rocket 4.3 20:23:27 10° N 20:30:00 57° ENE 20:30:00 57° ENE
ISS -0.8 20:28:22 10° W 20:29:08 15° W 20:29:08 15° W
Cosmos 2082 Rocket 3.2 20:28:02 10° NNW 20:32:16 35° NNE 20:32:16 35° NNE
CENTAUR R/B 3.4 20:28:51 10° NW 20:36:52 62° WSW 20:39:10 48° S
SPOT 1/Viking Rocket 4.2 20:43:21 51° N 20:43:21 51° N 20:47:11 10° NNW
COSMOS 2406 3.5 20:38:20 10° NNW 20:43:10 65° NNW 20:43:10 65° NNW
ATLAS 3B R/B 2.7 20:37:20 10° NW 20:44:10 68° NE 20:44:10 68° NE
Cosmos 2279 Rocket 4.0 20:44:35 81° NW 20:44:35 81° NW 20:50:40 10° N
Meteor 1-24 Rocket 4.4 20:41:33 10° NNW 20:46:49 47° W 20:47:08 47° WSW
Spot 2 Rocket 4.3 20:51:06 47° NNW 20:51:06 47° NNW 20:54:45 10° NNW
Terra 3.8 21:02:36 24° N 21:02:36 24° N 21:04:31 10° N
Cosmos 2278 Rocket 4.3 21:07:57 17° NNE 21:07:57 17° NNE 21:09:12 10° NNE
Lacrosse 4 Rocket 4.1 21:05:43 10° NNW 21:06:37 16° NNW 21:06:37 16° NNW
Cosmos 909 Rocket 4.5 21:04:10 10° NNW 21:09:31 57° N 21:09:31 57° N
Resurs 01 Rocket 4.2 21:20:28 16° WNW 21:20:28 16° WNW 21:22:34 10° NW
USA 234 3.7 21:24:43 47° NNE 21:26:14 57° NNW 21:32:36 10° WSW
Lacrosse 5 rocket 4.1 21:23:36 10° NW 21:25:05 18° NNW 21:25:05 18° NNW
Cosmos 1833 Rocket 4.2 21:29:49 10° NW 21:33:07 33° WNW 21:33:07 33° WNW
Cosmos 2082 Rocket 4.3 22:12:11 10° NW 22:14:06 20° NW 22:14:06 20° NW
ATLAS 2AS CENTAUR R/B 4.0 22:11:19 10° WSW 22:18:47 42° NW 22:26:08 10° NE
ATLAS 3B R/B 4.5 22:28:34 10° NW 22:31:25 22° WNW 22:31:25 22° WNW
Cosmos 2278 Rocket 4.5 22:49:46 19° NNW 22:49:46 19° NNW 22:52:35 10° N
CZ-4C R/B 4.4 23:34:17 23° NNE 23:34:17 23° NNE 23:37:11 10° NNE
